カタログに戻る

ZHIHUI TIANWANG-1 01B

運用中通信HEO
NORAD 59706·PAYLOAD·🇨🇳 China

打ち上げ May 9, 2024 から Xichang Satellite Launch Center

Loading…

次のパス (今後24時間)

TLE

最新Source: Space-Track

元期: Sep 13, 2026, 21:06 UTC

1 59706U 24087B   26256.87957495  .00000006  00000-0  00000-0 0  9999
2 59706  53.1270 166.9266 0027237 202.0464 157.8763  2.00561154 16730

AllMySatでZHIHUI TIANWANG-1 01Bをリアルタイム追跡

Download on the App Store